This is the latest recevied weather packets stored in our database for station/object OK2ILA-6. If no packets are shown the sender has not sent any weather packets the latest 10 day(s).
| Time | Temp. | Humidity | Pressure | Rain* | Wind** | Luminosity | Snow |
|---|---|---|---|---|---|---|---|
| 1777900803 | 25.56° C | 38% | 1012.5 hPa | - | - | - | - |
| 1777900202 | 26.11° C | 36% | 1012.6 hPa | - | - | - | - |
| 1777899602 | 25.56° C | 36% | 1012.6 hPa | - | - | - | - |
| 1777899003 | 25.56° C | 36% | 1012.6 hPa | - | - | - | - |
| 1777898403 | 25.56° C | 37% | 1012.8 hPa | - | - | - | - |
| 1777897803 | 26.11° C | 36% | 1012.9 hPa | - | - | - | - |
| 1777897203 | 26.67° C | 39% | 1013 hPa | - | - | - | - |
| 1777896602 | 26.11° C | 38% | 1013 hPa | - | - | - | - |
| 1777896003 | 26.67° C | 40% | 1012.8 hPa | - | - | - | - |
| 1777895403 | 25.56° C | 38% | 1013 hPa | - | - | - | - |
| 1777894803 | 25.56° C | 36% | 1013 hPa | - | - | - | - |
| 1777894202 | 25° C | 37% | 1013.2 hPa | - | - | - | - |
| 1777893602 | 25.56° C | 36% | 1013.4 hPa | - | - | - | - |
| 1777893003 | 25° C | 37% | 1013.4 hPa | - | - | - | - |
| 1777892403 | 25° C | 37% | 1013.6 hPa | - | - | - | - |
| 1777891803 | 25° C | 38% | 1013.6 hPa | - | - | - | - |
| 1777891202 | 25.56° C | 35% | 1013.9 hPa | - | - | - | - |
| 1777890602 | 25.56° C | 38% | 1013.8 hPa | - | - | - | - |
| 1777890003 | 25.56° C | 34% | 1014 hPa | - | - | - | - |
| 1777889403 | 25.56° C | 35% | 1014 hPa | - | - | - | - |
| 1777888803 | 25.56° C | 36% | 1014.2 hPa | - | - | - | - |
| 1777888202 | 23.89° C | 38% | 1014.2 hPa | - | - | - | - |
| 1777887602 | 23.33° C | 39% | 1014.4 hPa | - | - | - | - |
| 1777887003 | 23.89° C | 39% | 1014.5 hPa | - | - | - | - |
| 1777886403 | 23.89° C | 37% | 1014.4 hPa | - | - | - | - |
* Rain since midnight (hover to see other rain measurements)
** Current wind speed in m/s (hover to see current wind gust speed)